When you browse on this site, cookies collect data to enhance your experience and personalize the content and advertising you see.
Visit our Privacy Policy to learn more. By continuing to use the site, you agree to this use of cookies and data.

Previsão horária em Aadorf

Hoje, 28 Setembro, Segunda-feira

Tempo Temperatura Precipitação Vento Pressão Humidade
00:00 +6°C° 0 mm 0 m/s 702 mmHg 83%
01:00 +6°C° 0 mm 0 m/s 702 mmHg 85%
02:00 +5°C° 0 mm 0 m/s 702 mmHg 87%
03:00 +4°C° 0 mm 0 m/s 702 mmHg 89%
04:00 +4°C° 0 mm 0 m/s 702 mmHg 91%
05:00 +4°C° 0 mm 0 m/s 702 mmHg 90%
06:00 +5°C° 0 mm 0 m/s 703 mmHg 88%
07:00 +5°C° 0 mm 0 m/s 703 mmHg 86%
08:00 +7°C° 0 mm 0 m/s 703 mmHg 80%
09:00 +9°C° 0 mm 0 m/s 704 mmHg 75%
10:00 +10°C° 0 mm 0 m/s 704 mmHg 69%
11:00 +12°C° 0 mm 0 m/s 704 mmHg 64%
12:00 +13°C° 0 mm 0 m/s 704 mmHg 59%
13:00 +15°C° 0 mm 0 m/s 704 mmHg 54%
14:00 +15°C° 0 mm 1 m/s 704 mmHg 55%
15:00 +15°C° 0 mm 1 m/s 704 mmHg 55%
16:00 +14°C° 0 mm 1 m/s 705 mmHg 56%
17:00 +12°C° 0 mm 1 m/s 705 mmHg 63%
18:00 +10°C° 0 mm 1 m/s 705 mmHg 70%
19:00 +8°C° 0 mm 1 m/s 706 mmHg 78%
20:00 +8°C° 0 mm 1 m/s 706 mmHg 79%
21:00 +8°C° 0 mm 1 m/s 707 mmHg 80%
22:00 +8°C° 0 mm 1 m/s 707 mmHg 82%
23:00 +9°C° 0.3 mm 1 m/s 707 mmHg 86%

Amanhã, 29 Setembro, Terça-feira

Tempo Temperatura Precipitação Vento Pressão Humidade
00:00 +9°C° 0.3 mm 1 m/s 708 mmHg 90%
01:00 +9°C° 0.3 mm 1 m/s 708 mmHg 94%
02:00 +9°C° 0.4 mm 1 m/s 708 mmHg 94%
03:00 +9°C° 0.4 mm 1 m/s 708 mmHg 95%
04:00 +8°C° 0.4 mm 2 m/s 708 mmHg 95%
05:00 +8°C° 0.4 mm 2 m/s 708 mmHg 95%
06:00 +8°C° 0.4 mm 2 m/s 708 mmHg 96%
07:00 +8°C° 0.4 mm 2 m/s 709 mmHg 96%
08:00 +9°C° 0.3 mm 2 m/s 709 mmHg 96%
09:00 +9°C° 0.3 mm 2 m/s 709 mmHg 96%
10:00 +9°C° 0.3 mm 2 m/s 709 mmHg 96%
11:00 +9°C° 0.3 mm 2 m/s 709 mmHg 95%
12:00 +9°C° 0.3 mm 2 m/s 709 mmHg 95%
13:00 +10°C° 0.3 mm 2 m/s 709 mmHg 95%
14:00 +11°C° 0.1 mm 1 m/s 709 mmHg 95%
15:00 +11°C° 0.1 mm 1 m/s 709 mmHg 94%
16:00 +11°C° 0.1 mm 1 m/s 709 mmHg 94%
17:00 +9°C° 0.1 mm 0 m/s 709 mmHg 94%
18:00 +9°C° 0.1 mm 0 m/s 710 mmHg 95%
19:00 +9°C° 0.1 mm 0 m/s 710 mmHg 95%
20:00 +8°C° 0.1 mm 0 m/s 710 mmHg 95%
21:00 +8°C° 0.1 mm 0 m/s 710 mmHg 95%
22:00 +8°C° 0.1 mm 0 m/s 710 mmHg 96%
23:00 +7°C° 0 mm 0 m/s 709 mmHg 96%

Depois de amanhã, 30 Setembro, Quarta-feira

Tempo Temperatura Precipitação Vento Pressão Humidade
00:00 +7°C° 0 mm 0 m/s 709 mmHg 96%
01:00 +7°C° 0 mm 0 m/s 709 mmHg 96%
02:00 +7°C° 0 mm 0 m/s 709 mmHg 96%
03:00 +6°C° 0 mm 0 m/s 708 mmHg 96%
04:00 +6°C° 0 mm 0 m/s 708 mmHg 96%
05:00 +6°C° 0 mm 0 m/s 708 mmHg 96%
06:00 +6°C° 0 mm 0 m/s 708 mmHg 96%
07:00 +6°C° 0 mm 0 m/s 708 mmHg 96%
08:00 +8°C° 0 mm 0 m/s 708 mmHg 91%
09:00 +10°C° 0 mm 0 m/s 708 mmHg 87%
10:00 +13°C° 0 mm 0 m/s 708 mmHg 83%
11:00 +14°C° 0 mm 0 m/s 708 mmHg 76%
12:00 +16°C° 0 mm 1 m/s 708 mmHg 68%
13:00 +19°C° 0 mm 1 m/s 708 mmHg 61%
14:00 +18°C° 0 mm 1 m/s 707 mmHg 61%
15:00 +18°C° 0 mm 1 m/s 707 mmHg 62%
16:00 +18°C° 0 mm 1 m/s 706 mmHg 62%
17:00 +15°C° 0 mm 1 m/s 706 mmHg 70%
18:00 +13°C° 0 mm 1 m/s 706 mmHg 79%
19:00 +10°C° 0 mm 0 m/s 706 mmHg 87%
20:00 +9°C° 0 mm 0 m/s 705 mmHg 89%
21:00 +9°C° 0 mm 0 m/s 705 mmHg 91%
22:00 +8°C° 0 mm 0 m/s 705 mmHg 92%
23:00 +8°C° 0 mm 0 m/s 705 mmHg 93%

1 Outubro, Quinta-feira

Tempo Temperatura Precipitação Vento Pressão Humidade
00:00 +8°C° 0 mm 0 m/s 704 mmHg 93%
01:00 +7°C° 0 mm 0 m/s 704 mmHg 93%
02:00 +7°C° 0 mm 0 m/s 703 mmHg 94%
03:00 +7°C° 0 mm 0 m/s 703 mmHg 94%
04:00 +7°C° 0 mm 0 m/s 703 mmHg 94%
05:00 +7°C° 0 mm 0 m/s 702 mmHg 93%
06:00 +7°C° 0 mm 0 m/s 702 mmHg 93%
07:00 +8°C° 0 mm 0 m/s 702 mmHg 93%
08:00 +10°C° 0 mm 0 m/s 702 mmHg 87%
09:00 +12°C° 0 mm 0 m/s 701 mmHg 81%
10:00 +14°C° 0 mm 0 m/s 701 mmHg 74%
11:00 +16°C° 0 mm 1 m/s 701 mmHg 72%
12:00 +16°C° 0 mm 1 m/s 701 mmHg 69%
13:00 +17°C° 0 mm 2 m/s 701 mmHg 66%
14:00 +16°C° 0.3 mm 2 m/s 701 mmHg 70%
15:00 +14°C° 0.3 mm 3 m/s 701 mmHg 73%
16:00 +14°C° 0.3 mm 3 m/s 701 mmHg 77%
17:00 +12°C° 0.7 mm 3 m/s 701 mmHg 83%
18:00 +11°C° 0.7 mm 3 m/s 701 mmHg 89%
19:00 +10°C° 0.7 mm 3 m/s 701 mmHg 95%
20:00 +9°C° 0.5 mm 2 m/s 702 mmHg 94%
21:00 +9°C° 0.5 mm 2 m/s 702 mmHg 94%
22:00 +8°C° 0.5 mm 2 m/s 702 mmHg 94%
23:00 +9°C° 0 mm 1 m/s 702 mmHg 93%

2 Outubro, Sexta-feira

Tempo Temperatura Precipitação Vento Pressão Humidade
00:00 +9°C° 0 mm 1 m/s 702 mmHg 93%
01:00 +8°C° 0 mm 1 m/s 702 mmHg 92%
02:00 +8°C° 0 mm 1 m/s 701 mmHg 92%
03:00 +8°C° 0 mm 1 m/s 701 mmHg 92%
04:00 +8°C° 0 mm 1 m/s 700 mmHg 91%
05:00 +8°C° 0 mm 1 m/s 700 mmHg 91%
06:00 +8°C° 0 mm 1 m/s 700 mmHg 91%
07:00 +7°C° 0 mm 1 m/s 699 mmHg 91%
08:00 +9°C° 0 mm 1 m/s 699 mmHg 84%
09:00 +11°C° 0 mm 1 m/s 698 mmHg 78%
10:00 +14°C° 0 mm 1 m/s 698 mmHg 72%
11:00 +15°C° 0 mm 1 m/s 698 mmHg 66%
12:00 +16°C° 0 mm 1 m/s 697 mmHg 60%
13:00 +18°C° 0 mm 1 m/s 697 mmHg 54%
14:00 +18°C° 0 mm 1 m/s 696 mmHg 57%
15:00 +18°C° 0 mm 1 m/s 696 mmHg 60%
16:00 +16°C° 0 mm 1 m/s 695 mmHg 63%
17:00 +15°C° 0 mm 1 m/s 695 mmHg 68%
18:00 +13°C° 0 mm 1 m/s 694 mmHg 73%
19:00 +12°C° 0 mm 1 m/s 694 mmHg 78%
20:00 +11°C° 0 mm 1 m/s 694 mmHg 79%
21:00 +11°C° 0 mm 1 m/s 693 mmHg 80%
22:00 +11°C° 0 mm 1 m/s 693 mmHg 80%
23:00 +11°C° 0 mm 1 m/s 692 mmHg 81%

3 Outubro, Sábado

Tempo Temperatura Precipitação Vento Pressão Humidade
00:00 +10°C° 0 mm 1 m/s 691 mmHg 81%
01:00 +10°C° 0 mm 1 m/s 691 mmHg 82%
02:00 +10°C° 0 mm 1 m/s 690 mmHg 81%
03:00 +11°C° 0 mm 1 m/s 689 mmHg 81%
04:00 +11°C° 0 mm 1 m/s 688 mmHg 81%
05:00 +10°C° 0 mm 1 m/s 687 mmHg 82%
06:00 +10°C° 0 mm 1 m/s 687 mmHg 83%
07:00 +10°C° 0 mm 1 m/s 686 mmHg 85%
08:00 +9°C° 0.4 mm 2 m/s 687 mmHg 87%
09:00 +10°C° 0.4 mm 4 m/s 687 mmHg 89%
10:00 +9°C° 0.4 mm 5 m/s 687 mmHg 91%
11:00 +8°C° 3.4 mm 5 m/s 688 mmHg 92%
12:00 +7°C° 3.4 mm 4 m/s 689 mmHg 93%
13:00 +6°C° 3.4 mm 4 m/s 690 mmHg 94%
14:00 +6°C° 1.8 mm 4 m/s 690 mmHg 94%
15:00 +7°C° 1.8 mm 3 m/s 691 mmHg 94%
16:00 +5°C° 1.8 mm 3 m/s 691 mmHg 94%
17:00 +5°C° 1.1 mm 3 m/s 691 mmHg 94%
18:00 +6°C° 1.1 mm 2 m/s 692 mmHg 95%
19:00 +6°C° 1.1 mm 2 m/s 692 mmHg 95%
20:00 +6°C° 0.5 mm 2 m/s 692 mmHg 95%
21:00 +6°C° 0.5 mm 2 m/s 693 mmHg 95%
22:00 +7°C° 0.5 mm 1 m/s 693 mmHg 95%
23:00 +6°C° 0.6 mm 2 m/s 693 mmHg 95%
Mostrar mais